Regional Weather Roundup
Issued by NWS Bismarck, ND

Home | Current Version | Previous Version | Text Only | Print | Product List | Glossary On
Versions: 1 2 3 4 5 6 7 8 9 10 11 12 13 14 15 16 17 18 19 20 21 22 23 24 25 26 27 28 29 30 31 32 33 34 35 36 37 38 39 40 41 42 43 44 45 46 47 48 49 50
000
ASUS43 KBIS 270820
RWRBIS

NWR BROADCAST TEXT
NATIONAL WEATHER SERVICE BISMARCK ND
200 AM CST THU NOV 27 2014

NOTE: "FAIR" INDICATES FEW OR NO CLOUDS BELOW 12,000 FEET WITH NO
SIGNIFICANT WEATHER AND/OR OBSTRUCTIONS TO VISIBILITY.


CITY           SKY/WX    TMP DP  RH WIND       PRES   REMARKS
WILLISTON      MOCLDY     6   2  83 NE5       30.32F WCI  -3
MINOT          CLOUDY   -16 -21  78 CALM      30.39F
MINOT AFB      MOCLDY   -20 -26  76 S5        30.40F WCI -33
BISMARCK       MOCLDY    -9 -14  78 E3        30.45F
DICKINSON      PTCLDY    12   9  87 S12       30.25F WCI  -2
GARRISON         N/A      2  -2  83 E5        30.38F WCI  -8
HETTINGER ARPT CLOUDY     9   6  88 SE8       30.29F WCI  -3
JAMESTOWN      MOCLDY   -23 -29  73 CALM      30.48S
BEACH          CLOUDY    14  14 100 SE8       30.22F WCI   3
CARRINGTON     FAIR     -20 -26  76 SW8       30.48R WCI -39
CROSBY         CLOUDY     5   1  85 S8        30.32F WCI  -8
HARVEY         FAIR     -20 -26  76 CALM      30.45S
HAZEN          PTSUNNY   -4  -9  77 CALM      30.40F
LINTON         FAIR     -11 -17  77 E7        30.43F WCI -26
MANDAN         PTSUNNY   -2  -8  78 S6        30.41F WCI -14
OAKES            N/A    -13 -17  84 CALM      30.51F
RUGBY          FAIR     -17 -20  83 CALM      30.45S
STANLEY        CLOUDY     5   5 100 S6        30.31F WCI  -6
TIOGA          CLOUDY     7   7 100 SE9       30.33F WCI  -7
$$

CITY           SKY/WX    TMP DP  RH WIND       PRES   REMARKS
GRAND FORKS    MOCLDY   -13 -18  78 SW3       30.56F
GRAND FORKS AF MOCLDY   -14 -19  76 SW2       30.55S
DEVILS LAKE    MOCLDY    -4 -13  65 SW5       30.44S WCI -15
FARGO          PTCLDY   -10 -17  71 N5        30.56F WCI -22
CANDO          FAIR     -13 -17  84 CALM      30.47S
CAVALIER       FAIR     -13 -18  77 CALM      30.55S
GRAFTON        FAIR     -13 -18  77 CALM      30.56F
GWINNER        SUNNY     -8 -15  71 CALM      30.52F
LANGDON        FAIR     -17 -22  76 CALM      30.44F
ROLLA          FAIR     -13 -18  77 SW6       30.41F WCI -27
WALHALLA         N/A    -13 -18  77 CALM      30.53F
$$

CITY           SKY/WX    TMP DP  RH WIND       PRES   REMARKS
ABERDEEN       MOCLDY   -10 -15  78 N5        30.52F WCI -22
MOBRIDGE       MOCLDY     0  -5  79 E8        30.41S WCI -14
BUFFALO          N/A     20  15  81 S10       30.17F WCI   9
RAPID CITY     CLOUDY    23  21  92 E6        30.24S WCI  16
GLASGOW        FLURRIES  17  12  80 E15       30.16F WCI   2
SIDNEY         MOCLDY    12  10  92 CALM      30.29S
WOLF POINT     CLOUDY    15   9  76 E10       30.24F WCI   2
GLENDIVE       MOCLDY    16  12  86 NE6       30.22F WCI   7
MILES CITY     LGT SNOW  27  23  85 SE9       30.14F FOG     WCI  18
BAKER          CLOUDY    22  18  85 SE15      30.20F WCI   9
$$

CITY           SKY/WX    TMP DP  RH WIND       PRES   REMARKS
BILLINGS       CLOUDY    28  27  96 SE3       30.06F FOG
GREAT FALLS    CLOUDY    35  32  88 SW15      29.93F
REGINA         FLURRIES   5   1  85 SE13      30.27F WCI -12
ESTEVAN        PTCLDY   -15 -18  84 E8        30.33F WCI -32
$$




USA.gov is the U.S. government's official web portal to all federal, state and local government web resources and services.